Regional Weather Roundup
Issued by NWS Newport/Morehead, NC

Current Version | Previous Version | Graphics & Text | Print | Product List | Glossary Off
Versions: 1 2 3 4 5 6 7 8 9 10 11 12 13 14 15 16 17 18 19 20 21 22 23 24 25 26 27 28 29 30 31 32 33 34 35 36 37 38 39 40 41 42 43 44 45 46 47 48 49 50

000
ASUS42 KMHX 241925
RWRMHX
WEATHER ROUNDUP FOR EASTERN NORTH CAROLINA
NATIONAL WEATHER SERVICE NEWPORT/MOREHEAD CITY NC
300 PM EDT THU MAY 24 2018

NOTE: "FAIR" INDICATES FEW OR NO CLOUDS BELOW 12,000 FEET
WITH NO SIGNIFICANT WEATHER AND/OR OBSTRUCTIONS TO VISIBILITY

NCZ015>017-031-032-045>047-102-103-242000-
NORTH COAST

CITY           SKY/WX    TMP DP  RH WIND       PRES   REMARKS
EDENTON        FAIR      82  65  56 SE8       30.16F
ELIZABETH CITY FAIR      82  60  47 NE7       30.16F
KITTY HAWK     FAIR      75  63  66 CALM      30.15F
MANTEO         FAIR      77  61  57 E9        30.16F

$$

NCZ045>047-081-094-103-104-242000-
CENTRAL COAST

CITY           SKY/WX    TMP DP  RH WIND       PRES   REMARKS
FRISCO         FAIR      79  62  56 NE8       30.15F

$$

NCZ095-097-098-100-101-242000-
SOUTHERN COAST

CITY           SKY/WX    TMP DP  RH WIND       PRES   REMARKS
BEAUFORT       FAIR      79  66  64 E13       30.14S
CEDAR ISLAND   NOT AVBL
JACKSONVILLE   FAIR      81  70  69 SE12      30.12F
PINEY ISLAND   NOT AVBL
WILMINGTON     FAIR      78  63  59 E12G21    30.13F


$$

NCZ011>013-027>030-043-044-078>080-089-090>093-098-242000-
COASTAL PLAIN

CITY           SKY/WX    TMP DP  RH WIND       PRES   REMARKS
AHOSKIE        FAIR      82  59  46 E5        30.15F
CLINTON        FAIR      85  70  61 E7        30.12S
ELIZABETHTOWN  LGT RAIN  73  69  88 E8        30.12S
GOLDSBORO      FAIR      84  65  53 NE9       30.11F
GREENVILLE     FAIR      84  59  42 NE9       30.15F
HAVELOCK       NOT AVBL
KENANSVILLE    PTSUNNY   84  66  54 CALM      30.12S
KINSTON        MOSUNNY   82  64  54 NE8       30.14F
NEW BERN       PTSUNNY   80  68  66 SE9       30.14F
RICHLANDS      CLOUDY    81  71  71 SE10      30.13
ROCKY MOUNT    FAIR      83  62  49 E6        30.15F
WASHINGTON     FAIR      84  61  46 E8        30.14F
WHITEVILLE     FAIR      82  70  66 E6        30.10S

$$

AMZ130-135-150-152-154-156-158-170-250-252-270-ANZ085-086-088-633-658-670-242000-
MARINE OBSERVATIONS

STATION/POSITION TIME  TEMP    WIND        PRES    WAVE   SWELL
                       AIR SEA DIR/SP/G            HT/PER HT/PER
                 (UTC) (F)     (DEG/KT/KT) (MB)    (FT/S) (FT/S)
CHESAPEAKE LIGHT NOT AVBL
64 E VA BEACH    1850   67 69   40/  8/  8 1021.8    2/ 8   2/ 8
DUCK             1900   72 68   40/  7/  9 1021.2
2 E DUCK         1900      72                N/A     2/ 8
OREGON INLET     1900   73 76   20/  8/ 11 1021.1
13E OREGON INLT  1848      70                N/A     2/ 8   2/ 8
HATTERAS CG      1900   76 76   60/ 10/ 13 1020.7
DIAMOND BUOY     1910   73 76   30/ 12/ 14 1021.0
CAPE LOOKOUT     1900           70/ 10/ 12 1021.1
BEAUFORT LAB     1900   77 78   90/ 11/ 16 1020.9
30 SE NEW RVR IN 1908   76     100/ 10/ 14 1020.4
30 SE NEW RVR IN 1900      76                N/A     3/ 8
27 SE WRIGHTSVLE 1908   75 76  100/ 14/ 17 1020.1
5 SE WRIGHTSVLE  1908   74 74  140/ 12/ 16 1019.4
225 S CAPE HAT   1900      79  300/  6/  8 1020.1
41 SE CHARLESTON 1900      75  140/  4/  6 1019.3

$$




USA.gov is the U.S. government's official web portal to all federal, state and local government web resources and services.